Showing default

UHETSAT, 58466

Orbit data source: Space-Track

UHETSAT, 58466 is a payload satellite owned by SITAEL SpA (IT) in SSO that was launched on Fri, 01 Dec 2023 UTC via an FALCON 9 launch vehicle from the Air Force Western Test Range (AFWTR). Payload-class satellites include a variety of spacecraft equipped with specific instruments for various scientific and technological missions. These include communications satellites like Starlink; space stations such as the ISS; scientific satellites like the Hubble; Earth observation satellites from companies like Planet Labs, Umbra, and HawkEye 360; GPS; miniature CubeSats for education and research; and military/defense satellites.

Loading next visibility...
Identifier
58466, 2023-185E
Orbit
SSO
Last TLE update
5 hours ago
Origin
Manufacturer
SITAEL SpA
Mission
Operational Commercial Technology
Bus & Motor
S-50, Unknown motor
Mass
70 kg wet, 70 kg dry
Launch date (UTC)
2023-12-01 (2 years ago)
Launch vehicle
FALCON 9
Launch site
Air Force Western Test Range (AFWTR)
Object type
Payload
Rocket body
Debris
Shape & HBR
Box, 0.7 m
Radar Cross Section
0.360 m², Medium (>0.1 m² and < 1m²)

Expand to show TLE details & history

TLE from 5 hours ago
0 UHETSAT
1 58466U 23185E   25192.15878651  .00003819  00000-0  15329-3 0  9992
2 58466  97.3942 258.1530 0016430  81.7720 278.5381 15.25456930 89201
Epoch: 2025-07-11T03:48Z
TLE epoch observation values (Epoch: 2025-07-11T03:48:39.154Z)
Latitude
Longitude
-88.32487°
Altitude
490.854 km
Speed
7.62 km/s
True Right ascension
17h 12m 36s
True Declination
0° 00' 00"
Sunlit
Object was in full shadow at epoch
Visualization orbit readout
Latitude
34.71769°
Longitude
97.02605°
Altitude
489.178 km
Speed
7.627 km/s
Apparent Right ascension
07h 21m 41s
Apparent Declination
-1° 07' 10"
Sunlit
Object is in daylight
Visualization observer readout
Local Sidereal Time
21:27:37
Azimuth
44.456° NE
Elevation
-41.798°
Doppler factor
1
Orbital elements
Apogee altitude
497.65 km
Perigee altitude
475.093 km
Semi-major axis
6,864.509 km
Eccentricity
0.00164
Inclination
97.3942°
RAAN
258.153°
Arg. of periapsis
81.772°
True anomaly
Unknown
Mean anomaly
278.5381°
Eccentric anomaly
Unknown
Mean motion
3.81618 °/min
Orbital period
94.34 mins
BSTAR
0.00015329
Loading maneuver chart data...
Loading SW <> Apogee altitude chart data...
Loading historical data...
Loading historical data...
Loading historical data...
Loading historical data...
Loading historical data...
Loading historical data...
Loading historical data...

UHETSAT Visibility forecast

Observer location: undefined°, undefined°

Span
Click to sort rows by Start time (UTC) header in descending order
Start Az.
Max El. time (UTC)
Max El. Az.
Max El.
End time (UTC)
End Az.
6 mins2025-07-11 16:57:57.244Z26.11° NE2025-07-11 17:00:57.244Z94.642° ESE35.875°2025-07-11 17:03:57.244Z171.606° S
4 mins2025-07-12 03:34:57.244Z104.794° ESE2025-07-12 03:36:57.244Z66.264° ENE16.624°2025-07-12 03:38:57.244Z29.547° NE
4 mins2025-07-12 05:08:57.244Z230.959° WSW2025-07-12 05:09:57.244Z256.697° W23.035°2025-07-12 05:12:57.244Z319.353° NNW
|